DW9181 Weather Reports


time (UTC)temp
F
wind
direction
speed
knots
gust
knots
rain 1hr
in
rain 24hr
in
rain mn
in
humidity
%
barometer
mb
20260504011505 49 247 0.0 0.0 0.00 0.00 0.00 53 994.7
20260504010005 50 247 0.0 0.0 0.00 0.00 0.00 49 994.7
20260504004515 52 247 0.0 0.0 0.00 0.00 0.00 47 994.6
20260504003004 54 247 0.0 0.0 0.00 0.00 0.00 43 994.5
20260504001512 56 247 0.0 0.0 0.00 0.00 0.00 38 994.4
20260504000003 57 247 0.0 0.9 0.00 0.00 0.00 35 994.2
20260503234502 59 247 0.0 0.0 0.00 0.00 0.00 34 994.1
20260503233110 60 247 0.9 3.5 0.00 0.00 0.00 32 994.1
20260503231600 60 348 1.7 3.5 0.00 0.00 0.00 31 993.9
20260503230113 60 267 1.7 5.2 0.00 0.00 0.00 30 993.9
20260503224609 61 291 1.7 6.1 0.00 0.00 0.00 30 993.9
20260503223112 61 285 0.9 3.5 0.00 0.00 0.00 33 993.8
20260503221557 61 267 1.7 7.0 0.00 0.00 0.00 31 994.0
20260503220056 61 243 2.6 7.0 0.00 0.00 0.00 30 994.0
20260503214558 61 234 3.5 7.8 0.00 0.00 0.00 29 994.1
20260503213055 61 265 2.6 7.8 0.00 0.00 0.00 30 994.0
20260503211552 62 271 1.7 8.7 0.00 0.00 0.00 29 994.1
20260503210050 61 221 4.3 9.6 0.00 0.00 0.00 29 994.1
20260503204548 60 257 2.6 6.1 0.00 0.00 0.00 31 994.2
20260503203047 61 5 3.5 7.0 0.00 0.00 0.00 31 994.1
20260503201548 60 280 2.6 7.8 0.00 0.00 0.00 29 994.4
20260503200045 60 253 0.9 7.0 0.00 0.00 0.00 32 994.5
20260503194546 60 277 1.7 7.8 0.00 0.00 0.00 31 994.8
20260503193039 58 273 1.7 6.1 0.00 0.00 0.00 33 995.0
20260503191537 59 327 0.0 5.2 0.00 0.00 0.00 31 995.1
20260503190042 60 323 1.7 11.3 0.00 0.00 0.00 35 995.3
20260503184532 59 211 3.5 7.8 0.00 0.00 0.00 31 995.4
20260503183038 59 256 1.7 6.1 0.00 0.00 0.00 33 995.6
20260503181546 58 325 4.3 7.8 0.00 0.00 0.00 32 995.7
20260503180040 58 342 4.3 8.7 0.00 0.00 0.00 32 995.9
20260503174524 57 272 2.6 8.7 0.00 0.00 0.00 31 995.9
20260503173022 56 257 2.6 7.8 0.00 0.00 0.00 38 996.2
20260503171525 56 254 3.5 8.7 0.00 0.00 0.00 37 996.3
20260503081557 40 277 0.0 0.0 0.00 0.00 0.00 67 995.9
20260503071550 41 332 0.9 2.6 0.00 0.00 0.00 68 995.4
20260503054541 43 295 0.9 2.6 0.00 0.00 0.00 66 995.3
20260503053036 43 302 0.9 2.6 0.00 0.00 0.00 67 995.3
20260503051535 43 284 0.0 1.7 0.00 0.00 0.00 68 995.3
20260503050033 43 299 0.0 0.9 0.00 0.00 0.00 69 995.4
20260503044538 43 300 0.0 0.9 0.00 0.00 0.00 68 995.5
20260503043031 42 323 0.0 0.0 0.00 0.00 0.00 68 995.4
20260503041530 42 329 0.0 0.0 0.00 0.00 0.00 68 995.6
20260503040031 43 293 0.0 1.7 0.00 0.00 0.00 67 995.6
20260503034527 44 355 0.0 3.5 0.00 0.00 0.00 65 995.4
20260503033025 44 325 1.7 3.5 0.00 0.00 0.00 64 995.5
20260503031525 45 347 1.7 3.5 0.00 0.00 0.00 63 995.5
20260503030030 45 321 1.7 3.5 0.00 0.00 0.00 63 995.5
20260503024525 46 336 0.9 2.6 0.00 0.00 0.00 62 995.6
20260503023023 46 326 0.9 2.6 0.00 0.00 0.00 60 995.7
20260503021524 46 329 0.0 1.7 0.00 0.00 0.00 60 995.6
20260503020025 47 325 1.7 2.6 0.00 0.00 0.00 58 995.6
20260503014523 47 348 0.9 2.6 0.00 0.00 0.00 59 995.4
20260503013022 47 355 1.7 3.5 0.00 0.00 0.00 58 995.3